Date String (YYYY-MM-DD hh:mm:ss) UTC,Instrument flags,Ambient pressure (hPa),Sample flow (lpm),Bypass flow (lpm),Sample temperature (°C),Ambient temperature (°C),ASC tube jacket temperature (°C),LED temperature (°C),Box temperature (°C),Sample RH (%),Span deviation,Mass concentration (μg/m³),Mass concentration (μg/m³),Mass concentration (μg/m³)
DateTimeUTC,F1_M11,P_M11,Q1_M11,Q2_M11,T1_M11,T2_M11,T3_M11,T4_M11,T5_M11,U1_M11,ZSPAN_M11,X0_M11,X2_M11,X1_M11
2021-09-05 09:00:00,,0830.2,5.00,0.00,30.1,29.0,00.0,39.2,31.9,12.4,0002.9,0018.35,0013.47,0012.82
2021-09-05 09:01:00,,0830.2,4.99,0.00,30.1,29.0,00.0,39.2,31.8,12.3,0002.9,0018.37,0013.46,0012.81
2021-09-05 09:02:00,,0830.2,5.01,0.00,30.1,29.0,00.0,39.2,31.9,12.2,0002.7,0018.34,0013.44,0012.78
2021-09-05 09:03:00,,0830.2,5.01,0.00,30.1,29.1,00.0,39.2,31.8,12.2,0002.5,0018.38,0013.42,0012.75
2021-09-05 09:04:00,,0830.3,5.00,0.00,30.1,29.1,00.0,39.2,31.8,12.1,0002.4,0018.30,0013.35,0012.72
2021-09-05 09:05:00,,0830.3,4.99,0.00,30.2,29.1,00.0,39.3,31.9,12.0,0002.6,0018.38,0013.27,0012.64
2021-09-05 09:06:00,,0830.3,4.99,0.00,30.2,29.1,00.0,39.3,31.9,11.9,0002.5,0018.34,0013.19,0012.58
2021-09-05 09:07:00,,0830.2,5.00,0.00,30.2,29.1,00.0,39.3,31.9,11.9,0002.2,0017.99,0013.13,0012.52
2021-09-05 09:08:00,,0830.3,5.01,0.00,30.2,29.1,00.0,39.3,31.9,11.9,0001.8,0017.78,0013.06,0012.46
2021-09-05 09:09:00,,0830.3,4.99,0.00,30.2,29.2,00.0,39.3,31.9,11.9,0001.6,0018.22,0013.06,0012.46
2021-09-05 09:10:00,,0830.2,5.01,0.00,30.2,29.2,00.0,39.3,31.9,12.0,0001.6,0018.23,0013.08,0012.45
2021-09-05 09:11:00,,0830.2,5.00,0.00,30.2,29.2,00.0,39.3,31.9,11.9,0001.4,0018.21,0013.04,0012.42
2021-09-05 09:12:00,,0830.2,4.99,0.00,30.2,29.2,00.0,39.3,31.9,11.8,0001.4,0018.13,0012.98,0012.39
2021-09-05 09:13:00,,0830.3,5.01,0.00,30.2,29.2,00.0,39.3,31.9,11.7,0001.6,0017.99,0012.92,0012.35
2021-09-05 09:14:00,,0830.3,5.00,0.00,30.2,29.2,00.0,39.3,31.9,11.6,0001.7,0017.86,0012.85,0012.29
2021-09-05 09:15:00,,0830.2,5.00,0.00,30.2,29.2,00.0,39.3,31.9,11.7,0001.8,0017.79,0012.77,0012.21
2021-09-05 09:16:00,,0830.3,5.00,0.00,30.2,29.2,00.0,39.3,31.9,11.6,0001.5,0017.60,0012.78,0012.22
2021-09-05 09:17:00,,0830.2,5.02,0.00,30.2,29.2,00.0,39.3,31.9,11.7,0001.1,0017.58,0012.80,0012.23
2021-09-05 09:18:00,,0830.2,4.99,0.00,30.2,29.2,00.0,39.3,31.9,12.0,0001.3,0017.61,0012.80,0012.24
2021-09-05 09:19:00,,0830.2,5.01,0.00,30.2,29.3,00.0,39.4,32.0,11.9,0001.2,0017.57,0012.87,0012.29
2021-09-05 09:20:00,,0830.2,4.99,0.00,30.3,29.3,00.0,39.4,32.0,11.5,0001.1,0017.06,0012.84,0012.29
2021-09-05 09:21:00,,0830.3,5.00,0.00,30.3,29.3,00.0,39.4,32.0,11.5,0001.1,0016.99,0012.80,0012.26
2021-09-05 09:22:00,,0830.2,5.00,0.00,30.3,29.3,00.0,39.4,32.0,11.4,0001.3,0017.09,0012.79,0012.25
2021-09-05 09:23:00,,0830.2,5.01,0.00,30.3,29.2,00.0,39.4,32.0,11.2,0001.3,0017.49,0012.76,0012.21
2021-09-05 09:24:00,,0830.2,4.98,0.00,30.3,29.2,00.0,39.4,32.0,11.2,0001.2,0017.46,0012.72,0012.18
2021-09-05 09:25:00,,0830.2,5.00,0.00,30.3,29.2,00.0,39.4,32.0,11.0,0001.1,0017.48,0012.72,0012.15
2021-09-05 09:26:00,,0830.1,5.00,0.00,30.3,29.2,00.0,39.4,31.9,11.4,0001.3,0017.82,0012.75,0012.17
2021-09-05 09:27:00,,0830.1,5.01,0.00,30.3,29.2,00.0,39.4,32.0,11.3,0001.4,0018.71,0012.76,0012.17
2021-09-05 09:28:00,,0830.1,5.00,0.00,30.3,28.1,00.0,39.4,31.7,11.4,0001.8,0018.83,0012.78,0012.16
2021-09-05 09:29:00,,0830.1,5.01,0.00,30.1,26.2,00.0,39.4,31.3,11.3,0002.1,0019.02,0012.80,0012.16
2021-09-05 09:30:00,,0830.1,4.99,0.00,30.0,26.1,00.0,39.3,31.2,11.2,0002.3,0018.82,0012.71,0012.09
2021-09-05 09:31:00,,0830.1,5.01,0.00,29.8,26.6,00.0,39.2,31.2,11.2,0002.3,0018.74,0012.66,0012.05
2021-09-05 09:32:00,,0830.1,4.99,0.00,29.8,27.0,00.0,39.2,31.2,11.1,0002.3,0018.65,0012.60,0012.01
2021-09-05 09:33:00,,0830.2,5.01,0.00,29.8,27.4,00.0,39.1,31.3,11.0,0002.0,0019.22,0012.52,0011.95
2021-09-05 09:34:00,,0830.2,5.01,0.00,29.8,27.6,00.0,39.1,31.3,11.0,0002.1,0018.87,0012.49,0011.91
2021-09-05 09:35:00,,0830.2,5.01,0.00,29.8,27.9,00.0,39.1,31.4,11.0,0002.4,0019.15,0012.47,0011.89
2021-09-05 09:36:00,,0830.3,4.98,0.00,29.8,28.1,00.0,39.0,31.4,11.0,0002.6,0019.11,0012.41,0011.86
2021-09-05 09:37:00,,0830.2,5.02,0.00,29.8,28.2,00.0,39.0,31.4,11.0,0002.3,0018.78,0012.34,0011.80
2021-09-05 09:38:00,,0830.2,5.00,0.00,29.8,28.3,00.0,39.0,31.4,10.9,0002.2,0017.77,0012.24,0011.71
2021-09-05 09:39:00,,0830.2,4.99,0.00,29.8,28.4,00.0,39.0,31.4,10.9,0002.2,0017.61,0012.16,0011.63
2021-09-05 09:40:00,,0830.2,4.99,0.00,29.8,28.5,00.0,39.0,31.4,10.9,0002.2,0017.51,0012.08,0011.56
2021-09-05 09:41:00,,0830.2,4.98,0.00,29.8,28.5,00.0,39.0,31.5,10.9,0002.4,0017.24,0012.01,0011.49
2021-09-05 09:42:00,,0830.2,5.02,0.00,29.8,28.6,00.0,39.0,31.5,10.9,0002.5,0017.22,0011.96,0011.42
2021-09-05 09:43:00,,0830.2,4.99,0.00,29.8,28.6,00.0,39.0,31.5,10.9,0002.6,0017.31,0011.97,0011.40
2021-09-05 09:44:00,,0830.2,5.00,0.00,29.8,28.6,00.0,39.0,31.5,10.9,0003.1,0016.93,0011.97,0011.39
2021-09-05 09:45:00,,0830.1,5.00,0.00,29.8,28.6,00.0,39.0,31.5,10.7,0003.4,0016.88,0011.95,0011.36
2021-09-05 09:46:00,,0830.2,5.01,0.00,29.9,28.7,00.0,39.0,31.5,10.4,0003.2,0016.53,0011.92,0011.32
2021-09-05 09:47:00,,0830.2,5.00,0.00,29.9,28.7,00.0,39.0,31.6,10.3,0003.1,0016.37,0011.90,0011.31
2021-09-05 09:48:00,,0830.2,4.99,0.00,29.9,28.7,00.0,39.0,31.5,10.3,0003.0,0016.31,0011.87,0011.28
2021-09-05 09:49:00,,0830.2,4.99,0.00,29.9,28.7,00.0,39.0,31.6,10.4,0003.1,0016.28,0011.84,0011.24
2021-09-05 09:50:00,,0830.2,5.00,0.00,29.9,28.7,00.0,39.0,31.6,10.3,0002.9,0016.15,0011.77,0011.20
2021-09-05 09:51:00,,0830.2,5.00,0.00,29.9,28.7,00.0,39.0,31.6,10.2,0002.6,0015.99,0011.69,0011.14
2021-09-05 09:52:00,,0830.3,5.00,0.00,29.9,28.7,00.0,39.0,31.6,09.9,0002.2,0015.83,0011.62,0011.07
2021-09-05 09:53:00,,0830.2,5.01,0.00,29.9,28.7,00.0,39.0,31.6,10.0,0002.4,0015.90,0011.57,0011.01
2021-09-05 09:54:00,,0830.3,5.00,0.00,29.9,28.7,00.0,39.0,31.6,10.0,0002.3,0016.19,0011.44,0010.93
2021-09-05 09:55:00,,0830.3,4.99,0.00,29.9,28.7,00.0,39.0,31.6,10.0,0002.0,0016.27,0011.36,0010.86
2021-09-05 09:56:00,,0830.2,5.01,0.00,29.9,28.7,00.0,39.0,31.6,09.9,0001.6,0016.14,0011.32,0010.81
2021-09-05 09:57:00,,0830.2,4.99,0.00,30.0,28.8,00.0,39.1,31.6,09.9,0001.6,0016.30,0011.29,0010.77
2021-09-05 09:58:00,,0830.2,5.00,0.00,30.0,28.8,00.0,39.1,31.7,09.8,0001.6,0016.29,0011.25,0010.73
2021-09-05 09:59:00,,0830.2,5.01,0.00,30.0,28.8,00.0,39.1,31.7,09.7,0001.7,0016.18,0011.18,0010.68
